Flag for United Kingdom Weather past 2 weeks in Whitstable, England, United Kingdom

Now
49 °F

Cool.


Feels Like: 46 °F
Forecast: 54 / 61 °F
Wind: 7 mph from Northwest

Location: Manston

Current Time: May 27, 2015 at 5:55:30 AM

Latest Report: May 27, 2015 at 4:00 AM


Visibility: 14 mi

Pressure: 30.28 "Hg

Humidity: 80%

Dew point: 43 °F

Location of WhitstableLocation

Historic Weather in Whitstable — Graph

°F

Whitstable temperature yesterday

Maximum temperature yesterday: 64 °F (at 4:00 PM)
Minimum temperature yesterday: 48 °F (at 3:00 AM)
Average temperature yesterday: 56 °F

Past Weeks' High & Low Weather Summary

 TemperatureHumidityPressure
High67 °F (May 24, 2:00 PM)96% (May 25, 12:00 AM)30.34 "Hg (May 25, 12:00 AM)
Low41 °F (May 20, 2:00 AM)41% (May 13, 3:00 PM)29.62 "Hg (May 18, 4:00 PM)
Average53 °F76%30.10 "Hg
* Reported May 12 4:00 AM — May 27 4:00 AM, Whitstable, Weather by CustomWeather, © 2015

Note: Actual official high and low records may vary slightly from our data, if they occured in-between our weather recording intervals... More about our weather records

Advertising

Whitstable weather history for previous 24 hours

 ConditionsComfort  
Time TempWeatherWind HumidityBarometerVisibility
4:00 AM
Wed, May 27
49 °FCool.7 mph80%30.28 "Hg14 mi
3:00 AM51 °FCool.8 mph79%30.29 "Hg22 mi
2:00 AM52 °FCool.9 mph90%30.28 "Hg12 mi
1:00 AM52 °FSmoke.5 mph93%30.29 "Hg4 mi
12:00 AM53 °FSmoke.9 mph92%30.28 "Hg6 mi
11:00 PM
Tue, May 26
53 °FSmoke.8 mph91%30.28 "Hg6 mi
10:00 PM54 °FCool.6 mph89%30.28 "Hg7 mi
9:00 PM56 °FCool.2 mph72%30.26 "Hg15 mi
8:00 PM59 °FCool.3 mph65%30.25 "Hg14 mi
7:00 PM61 °FRefreshingly cool.6 mph57%30.24 "Hg11 mi
6:00 PM62 °FRefreshingly cool.7 mph54%30.23 "Hg22 mi
5:00 PM62 °FRefreshingly cool.6 mph53%30.23 "Hg15 mi
4:00 PM64 °FMild.7 mph52%30.22 "Hg9 mi
3:00 PM63 °FMild.8 mph51%30.22 "Hg14 mi
2:00 PM62 °FRefreshingly cool.10 mph54%30.22 "Hg16 mi
1:00 PM60 °FCool.9 mph61%30.21 "Hg13 mi
12:00 PM59 °FCool.10 mph63%30.21 "Hg13 mi
11:00 AM58 °FCool.9 mph67%30.20 "Hg17 mi
9:00 AM55 °FCool.10 mph76%30.19 "Hg12 mi
8:00 AM53 °FCool.9 mph80%30.18 "Hg9 mi
7:00 AM52 °FCool.9 mph82%30.17 "Hg14 mi
6:00 AM50 °FCool.6 mph88%30.16 "Hg11 mi
5:00 AM48 °FCool.6 mph89%30.15 "Hg9 mi
Weather by CustomWeather, © 2015

See weather overviewHow to use our weather pages